BREEZE-KM R/B

Satellite information

Favourite Embed

Satellite Type and Status

ROCKET BODYIN ORBIT

Key statistics

Satellite BREEZE-KM R/B at a glance.

Uptime

3374

Days in orbit

Revolutions

≈ 14.3

Per day

Orbit

SSO

Sun Synchronous Orbit

Inclination

99.2

Latest

Satellite identification and parameters

Extended collection of information and parameters for BREEZE-KM R/B.

Object identification

Identified? True

Debris? False

Object name: BREEZE-KM R/B

International designator: 2016-034B

Object number (NORAD): 41580

Object ID (CCSDS): 41580

Country: COMMONWEALTH OF INDEPENDENT STATES (CIS)

Current information (Y/N): Y

RCS size: LARGE

Orbital parameters

Period: 100.995 minutes

Inclination: 99.2185 deg

SMA: 7183.912 km

Apoapsis: 956.303 km

Periapsis: 655.252 km

RAAN: 88.3705 deg

Eccentricy: 0.02095313

Argument of periapsis: 304.3021 deg

Mean anomaly: 53.8478 deg

Mean motion: 14.25808584 rev/day

Mean motion (dot): 0.00000066 rev/day2

B* drag term: 0.000040756735 1/REarth

Two-line elements (TLE)

Creation date: Aug. 30, 2025, 3:38 a.m.

Reference frame: TEME

Reference center: EARTH

Epoch: Aug. 29, 2025, 7:53 p.m. UTC

TLE line 0: 0 BREEZE-KM R/B

TLE line 1: 1 41580U 16034B 25241.82853722 .00000066 00000-0 40757-4 0 9992

TLE line 2: 2 41580 99.2185 88.3705 0209531 304.3021 53.8478 14.25808584480460

Live tracking on map

Real-time ground track for satellite BREEZE-KM R/B.

In-orbit conjunctions

A list of the most updated potential collisions computed for object BREEZE-KM R/B.

Target Orbit TCA Probability of collision Miss distance Type
CBERS 1 DEB SSO 2025-02-20 04:45:31 0.0007426618 62.0 (m) DEBRIS
DELTA 1 DEB SSO 2025-01-05 21:09:41 0.0005585253 805.0 (m) DEBRIS
THORAD AGENA D DEB LEO 2024-11-17 19:54:22 0.000172154 222.0 (m) DEBRIS
FENGYUN 1C DEB SSO 2024-11-04 04:36:45 0.0004065526 190.0 (m) DEBRIS
FENGYUN 1C DEB SSO 2024-10-28 10:32:33 0.0002392069 167.0 (m) DEBRIS

Associated space launch

Geo-IK-2 will conduct high precision geodesic measurements to improve our understanding and models of the earth. Using GLONASS for accurate positioning data, the 1400kg satellite will operate in a 1000km polar orbit.

BREEZE-KM R/B was lifted into orbit during the mission ‘Rokot/Briz-KM | Geo-IK-2 No.12L (Kosmos 2517)’, on board a Rokot/Briz-KM space rocket.

The launch took place on June 4, 2016, 2 p.m. from 133/3 (133L).

For more information about the launch, click the button.

Launch to space Rokot/Briz-KM | Geo-IK-2 No.12L (Kosmos 2517)
Rokot/Briz-KM | Geo-IK-2 No.12L (Kosmos 2517)

Agency: N/A

Status: Launch Successful

Launch date: June 4, 2016, 2 p.m. UTC

Rocket: Rokot/Briz-KM

Launch pad: 133/3 (133L)

Location: Plesetsk Cosmodrome, Russian Federation

...

Latest news about this satellite

There are no fresh news available about this satellite. Check back as we update our databases every day.


Newsletter sign-up

Weekly statistics, charts and insights to help you stay on top of the space industry.